Probability
7 5 3 2 1 0 0 0 0 0 0 0 1 2 2 2 2 3 3 3 3 3 3 3 3 3 3 3 3 3 3 3 3 3 3 3 3 3 3 3 3 3 3 3 3 3 3 3 3
5 5 3 1 0 0 0 0 0 0 0 0 0 2 3 3 3 3 3 3 3 3 3 3 3 3 3 3 3 3 3 3 3 3 3 3 3 3 3 3 3 3 3 3 3 3 3 3 3
4 5 4 1 0 0 0 0 0 0 0 0 1 2 3 3 3 3 3 4 3 3 3 3 3 3 3 3 3 3 3 3 3 3 3 3 3 3 3 3 3 3 3 3 3 3 3 3 3
3 3 2 0 0 0 0 0 0 0 0 1 2 3 3 4 5 5 5 5 4 3 3 3 4 3 3 3 3 3 3 3 3 3 3 3 3 3 3 3 3 3 3 3 3 3 3 3 3
1 1 0 0 0 0 1 2 1 0 1 2 3 3 3 6 9 9 7 6 4 3 3 4 5 4 4 3 3 3 3 3 3 3 3 3 3 3 3 3 3 3 3 3 3 3 3 3 3
1 0 0 0 0 0 1 3 2 1 2 3 3 3 4 8 12 11 8 7 5 4 4 5 6 6 5 4 3 3 3 3 3 3 3 3 3 3 3 3 3 3 3 3 3 3 3 3 3
2 1 0 0 0 0 1 2 2 1 1 2 3 3 4 8 11 12 9 7 6 5 6 6 6 6 6 5 4 3 3 3 3 3 3 3 3 3 3 3 3 3 3 3 3 3 3 3 3
2 1 0 0 0 0 0 1 1 1 0 1 2 3 5 9 13 13 11 8 6 5 5 6 6 6 6 5 5 4 3 3 3 3 3 3 3 3 3 3 3 3 3 3 3 3 3 3 3
1 0 0 0 0 0 0 0 0 0 0 0 1 2 7 13 17 17 14 11 7 5 5 6 6 5 5 5 4 3 3 3 3 3 3 3 3 3 3 3 3 3 3 3 3 3 3 3 3
0 0 0 0 0 0 0 0 0 1 2 1 1 3 9 16 19 19 16 12 9 6 6 7 7 6 6 5 4 3 3 3 3 2 2 2 2 2 3 3 3 3 3 3 3 3 3 3 2
0 0 0 0 0 0 0 0 1 2 2 1 2 5 10 14 18 18 15 11 9 9 10 9 8 8 7 6 4 2 3 3 3 2 2 2 1 1 3 3 3 3 3 3 3 3 3 1 1
0 0 0 0 0 0 0 0 1 3 3 2 4 8 11 13 15 17 15 11 11 13 14 12 10 10 9 8 5 3 3 3 3 3 3 2 2 2 3 3 3 3 3 3 3 3 2 1 0
0 0 0 0 2 3 2 1 1 3 4 4 6 10 13 15 17 18 17 14 14 16 16 14 13 13 12 10 7 4 3 3 3 3 3 3 3 3 3 3 2 2 3 3 3 3 2 1 0
0 0 0 1 3 4 3 2 3 5 7 8 10 13 18 22 23 22 20 18 17 17 17 16 15 14 14 12 8 5 3 3 3 3 3 3 3 3 3 3 2 2 3 3 3 3 1 0 0
0 0 0 0 1 2 2 3 4 7 9 10 12 17 22 26 27 26 23 21 19 18 18 17 15 14 14 13 8 5 4 3 3 3 3 3 3 3 3 3 2 2 3 2 2 2 1 0 0
0 0 0 0 0 1 2 4 5 6 8 9 12 19 23 25 28 28 27 27 25 21 18 16 15 14 13 11 8 5 4 4 3 3 3 3 3 3 3 2 2 2 1 1 1 1 0 0 0
0 0 0 0 1 2 3 4 5 5 6 7 13 21 23 24 28 31 33 34 31 25 18 14 14 14 12 11 8 5 4 5 4 3 3 3 3 3 2 1 1 1 0 0 0 0 0 0 0
0 0 0 0 1 3 4 6 6 5 5 8 14 20 22 25 31 35 38 39 36 28 20 15 14 14 13 12 9 7 6 6 5 4 3 3 3 3 2 0 0 0 0 0 0 0 0 0 0
0 0 0 0 1 4 6 8 7 6 7 9 13 18 20 25 33 39 42 43 39 32 25 20 18 16 15 14 11 9 8 8 7 6 4 3 3 3 2 1 0 0 0 0 0 0 0 1 1
0 0 0 1 3 5 7 7 6 6 8 10 12 17 20 24 33 41 45 46 43 39 33 28 25 21 19 17 14 11 10 10 9 8 5 3 3 3 3 3 1 1 1 0 0 0 0 1 2
0 0 0 2 3 4 5 5 5 5 7 10 14 17 20 24 31 40 45 47 47 43 38 34 29 25 23 20 16 13 11 11 10 9 6 4 3 4 4 5 3 2 1 1 1 0 1 1 2
0 0 0 1 1 1 2 3 3 3 4 10 15 19 23 25 29 36 43 47 47 43 39 34 29 26 23 21 18 14 12 11 10 8 6 4 4 5 5 5 4 3 2 3 3 2 2 2 2
0 0 0 0 0 0 1 1 1 1 2 8 15 22 26 27 29 34 40 44 44 41 38 33 29 25 22 19 17 14 12 9 9 8 7 5 5 5 5 5 5 5 5 6 6 5 5 5 4
0 0 0 0 0 0 0 0 0 0 1 7 15 21 25 28 31 34 36 39 41 40 38 35 32 27 23 19 16 14 12 9 9 9 8 6 5 5 6 6 7 8 8 8 7 7 7 6 5
0 0 0 0 0 0 0 0 0 0 1 6 13 19 24 29 32 33 34 36 38 41 41 39 35 30 25 22 18 16 14 12 11 11 9 7 5 5 7 7 8 9 9 8 8 8 7 5 4
0 0 0 0 0 0 0 0 0 0 1 5 11 17 23 28 30 29 31 33 36 41 42 39 36 32 28 27 23 19 17 15 13 11 9 8 6 7 8 8 8 9 9 8 8 8 7 5 2
0 0 0 0 0 0 0 0 0 1 3 6 11 16 20 25 27 26 25 27 33 38 39 37 35 32 31 30 27 23 20 18 15 13 11 9 8 8 9 9 9 9 8 7 7 7 6 4 2
0 0 0 0 0 0 0 0 1 3 5 7 11 17 22 24 25 24 22 22 27 32 33 34 35 34 32 31 28 24 22 20 19 17 15 13 11 10 10 10 10 9 6 5 5 6 6 5 3
0 0 0 0 0 0 0 0 1 3 5 8 12 19 24 25 25 22 20 22 26 29 29 30 33 35 35 33 29 27 25 23 21 19 18 15 13 12 13 12 10 7 6 5 6 6 6 5 4
0 0 0 0 0 0 1 1 1 2 5 9 14 19 24 26 23 20 20 25 28 28 28 29 32 36 37 35 32 30 28 26 23 20 19 16 14 13 13 11 9 7 6 7 8 8 7 5 5
Wind_Speed
7 6 3 1 6 6 7 7 10 11 8 10 12 12 11 9 8 9 4 10 11 8 6 9 12 12 13 12 13 13 13 13 13 13 13 13 14 14 14 14 14 14 14 14 14 14 14 14 14
4 4 1 4 7 6 6 8 13 14 13 13 14 14 12 10 11 11 7 10 11 9 6 8 12 12 12 12 12 12 12 12 12 12 13 13 13 13 13 14 13 13 13 13 13 13 13 13 12
3 2 3 5 4 6 7 9 13 14 12 10 8 8 7 8 10 8 9 12 10 8 6 8 13 12 12 12 11 11 12 12 12 12 12 12 12 12 13 13 13 12 12 12 12 12 12 11 11
2 3 5 6 7 6 9 10 14 14 11 10 10 8 6 7 7 12 15 14 12 7 6 8 13 12 12 12 11 11 11 11 11 12 12 12 12 12 12 12 12 11 11 11 11 10 10 10 10
3 5 7 6 6 7 10 12 13 11 7 11 12 11 7 7 16 18 15 14 12 7 5 8 13 12 12 11 11 11 11 11 11 11 11 11 11 11 11 11 11 10 10 10 10 9 9 9 8
4 5 6 5 6 7 9 13 16 16 15 14 13 11 5 9 16 15 14 13 12 10 6 7 12 13 12 11 11 11 10 10 11 11 11 11 11 11 10 10 10 10 9 9 8 8 8 7 7
5 5 6 7 7 8 9 10 13 14 14 10 10 8 5 7 12 14 13 12 10 9 7 5 6 8 11 11 10 10 10 10 10 10 10 10 10 10 9 9 9 9 8 7 7 6 6 6 5
5 6 6 6 8 7 8 8 11 14 11 13 9 7 7 8 12 14 12 10 9 7 6 5 5 4 4 5 10 10 10 9 9 9 9 9 9 9 8 7 7 7 7 6 6 5 5 4 4
5 7 5 6 8 7 11 13 9 10 11 7 6 8 10 13 14 13 11 8 7 7 5 5 5 4 4 4 7 7 8 8 7 6 8 6 3 3 3 5 6 6 6 5 4 3 3 3 2
6 6 7 7 9 10 13 14 9 9 11 10 10 10 12 12 12 12 11 9 8 8 7 5 6 6 5 4 4 2 3 3 3 2 2 2 2 2 3 5 6 5 5 4 3 2 1 0 0
6 7 6 7 9 11 11 8 6 11 9 13 15 13 12 11 9 10 9 9 8 8 8 6 6 5 5 3 3 1 1 2 2 3 3 2 2 1 1 1 1 1 2 1 1 1 1 1 0
6 6 8 8 9 10 10 8 8 8 11 13 13 12 11 11 9 9 9 8 7 7 7 6 6 5 5 4 3 2 1 1 2 3 4 3 2 2 1 1 1 1 1 1 1 1 2 2 2
8 6 7 9 11 11 12 11 10 9 13 13 12 11 10 10 8 7 9 8 7 6 6 6 6 5 5 4 3 3 2 2 2 2 3 4 3 2 2 1 1 2 1 2 2 2 2 2 1
6 7 8 10 10 10 16 10 9 9 12 12 12 10 10 10 9 8 8 7 7 7 7 5 5 5 5 4 3 3 2 2 2 2 3 3 3 3 2 2 1 2 2 2 2 3 2 1 1
6 8 7 5 6 6 12 8 7 12 12 11 11 10 10 9 10 10 9 9 8 8 7 6 6 5 5 4 3 3 3 3 2 2 2 3 3 3 2 2 1 1 1 2 1 1 1 1 1
5 6 3 2 4 5 9 6 6 9 10 8 9 11 9 8 10 10 9 8 8 7 6 6 6 5 4 3 2 2 2 3 2 2 2 2 3 3 2 2 1 1 1 1 1 1 1 0 0
4 3 3 3 3 5 7 5 8 9 9 8 8 8 9 8 8 8 9 9 8 7 6 5 5 5 4 3 2 2 2 2 2 2 2 2 2 3 2 2 1 1 1 1 1 1 1 1 1
3 3 4 5 3 7 6 4 8 8 9 8 8 7 8 9 9 9 9 8 7 6 6 5 4 4 4 2 2 1 1 1 1 1 2 2 1 2 2 1 1 1 1 0 1 1 1 1 1
5 5 4 3 6 7 6 4 8 8 7 7 7 8 7 7 7 8 8 8 8 6 5 5 4 4 3 2 2 1 1 1 0 1 2 2 2 2 2 1 1 1 1 1 1 1 1 1 1
2 3 3 2 7 7 6 2 5 7 10 10 10 9 9 7 6 8 7 7 7 7 6 5 5 4 3 2 2 2 2 1 1 1 1 2 2 2 2 2 1 1 1 1 1 1 1 1 1
1 4 5 5 6 5 7 2 3 4 5 5 7 8 10 11 10 9 9 8 7 7 7 6 5 4 4 3 2 1 1 1 1 0 0 1 2 2 1 2 2 2 2 2 2 2 3 2 1
3 5 6 6 6 3 5 3 4 5 4 7 8 8 9 10 9 9 9 9 8 7 6 5 5 4 4 3 3 3 2 2 1 1 1 1 1 1 2 2 2 2 1 2 2 2 2 3 2
5 4 4 5 6 4 2 3 5 2 5 9 10 10 10 11 10 10 10 10 8 8 7 5 5 4 4 4 4 3 2 1 1 1 1 0 1 1 1 1 1 1 1 2 2 1 1 2 2
3 4 6 6 6 3 3 4 4 5 9 8 9 10 10 10 10 10 8 8 7 7 6 6 5 4 4 4 4 4 4 3 2 1 1 0 0 1 1 0 0 1 1 1 2 1 2 2 2
6 8 5 6 5 3 3 3 7 9 8 9 10 10 10 10 10 10 9 9 9 9 8 7 6 5 4 4 4 4 4 3 3 2 1 1 0 1 1 0 0 0 1 1 0 1 1 1 1
3 10 8 5 4 3 2 2 6 6 5 6 6 7 9 10 9 10 11 11 10 10 9 8 7 6 5 5 4 3 3 2 2 1 1 1 1 1 0 1 1 1 1 1 1 0 0 0 0
3 4 9 8 3 1 2 2 4 1 4 5 6 8 10 10 11 10 10 10 10 10 10 10 9 7 6 5 4 3 3 3 2 2 1 1 0 0 1 1 2 2 2 2 2 2 1 1 1
7 7 6 6 5 1 2 2 4 5 6 7 8 10 9 9 9 10 10 10 9 9 8 8 8 8 6 6 5 4 3 3 2 2 2 1 1 1 2 2 2 2 3 3 3 2 2 2 2
3 4 6 5 6 7 3 6 8 11 10 10 9 9 10 10 10 9 9 9 9 8 8 8 7 7 6 6 5 4 3 3 2 2 2 2 1 2 2 2 3 3 3 3 3 2 2 3 2
7 7 8 6 3 5 5 7 5 10 10 10 11 10 10 10 9 8 8 8 8 8 8 8 7 7 7 6 5 4 4 3 3 2 2 2 2 2 3 3 3 3 3 2 3 2 2 3 3
Wind_Direction
170 168 158 97 57 63 85 90 94 84 68 65 73 78 77 64 93 119 149 133 130 126 118 112 108 105 102 99 97 96 95 95 95 96 96 97 100 103 104 104 104 103 103 103 105 108 109 110 112
166 166 114 60 80 85 85 98 92 96 113 104 85 83 77 75 91 116 133 136 132 128 122 117 113 108 105 102 101 100 99 99 99 99 99 99 101 105 107 107 106 106 105 106 108 110 110 112 113
174 158 87 70 97 121 115 109 108 106 103 97 91 70 70 103 112 125 141 139 128 120 120 123 116 112 109 106 104 104 103 102 103 103 103 102 103 106 108 109 109 109 109 109 110 110 111 111 112
121 63 56 79 103 123 124 123 117 109 85 81 90 75 69 103 111 128 137 135 124 121 122 126 120 117 115 112 110 108 107 107 108 108 107 107 107 108 110 109 111 112 111 111 111 111 113 114 112
75 73 69 78 98 108 117 119 115 102 88 90 94 102 94 94 119 131 137 134 129 129 130 129 125 124 122 118 115 112 112 111 111 111 110 109 110 111 112 112 113 114 114 114 114 112 115 115 111
66 74 86 99 105 104 112 114 106 103 109 106 105 106 108 124 130 138 139 136 136 137 136 133 132 130 127 124 121 118 118 117 116 115 114 113 113 113 115 117 116 118 118 116 115 114 114 113 110
111 102 122 125 113 116 124 124 119 124 124 123 122 107 124 134 137 138 138 136 138 140 139 138 138 135 134 131 128 125 124 124 122 121 120 120 120 121 121 121 121 122 124 123 122 120 119 115 113
140 110 108 118 120 121 124 112 125 129 121 134 131 123 150 154 137 133 133 134 139 145 148 148 142 136 134 135 136 135 132 132 132 131 129 129 130 129 128 130 131 131 133 133 133 130 129 124 118
108 91 128 147 136 131 115 102 105 107 120 132 109 126 144 138 129 129 130 131 143 152 158 155 149 151 151 153 147 142 139 138 137 137 138 130 115 119 131 144 146 145 147 147 146 140 140 136 125
102 119 168 164 146 137 124 118 114 105 104 106 109 118 130 132 132 136 142 147 154 160 167 161 159 162 166 157 139 146 146 142 144 150 142 134 143 164 159 163 162 161 162 165 170 188 191 147 64
121 141 143 131 138 129 124 120 106 120 127 141 141 142 140 136 137 140 144 148 154 159 160 160 161 161 158 143 150 156 148 153 168 170 171 162 148 147 144 150 162 170 178 156 225 267 285 257 211
112 130 130 132 130 126 128 121 112 128 150 151 146 144 141 143 146 145 146 149 142 139 149 155 152 151 150 143 154 159 160 164 174 172 170 153 142 150 171 191 190 188 178 174 211 242 262 258 222
108 116 115 120 121 122 115 117 119 129 142 145 143 141 146 148 148 147 148 145 136 132 136 145 143 140 140 140 153 147 161 179 184 171 168 152 146 157 175 194 199 210 202 190 206 229 245 238 191
133 112 105 107 106 116 115 114 105 133 144 150 151 152 155 154 149 143 143 142 143 144 147 144 138 138 133 132 136 146 167 163 157 151 155 150 151 158 166 178 194 208 207 201 199 209 211 208 169
104 90 69 85 100 118 105 89 120 147 151 157 159 157 153 153 150 154 158 155 154 153 153 151 150 144 138 137 138 139 154 147 151 155 145 147 151 156 157 167 190 224 209 194 188 197 191 179 167
70 78 94 235 125 126 104 134 157 155 151 159 164 163 157 158 160 161 158 155 155 152 153 159 154 150 150 147 139 132 140 142 155 159 150 154 153 152 151 163 200 217 183 167 172 165 123 72 126
50 113 175 236 168 131 100 144 168 169 162 170 168 167 163 163 163 164 161 156 154 155 154 158 155 159 161 155 143 136 137 148 167 171 165 169 164 155 150 172 209 201 151 169 193 141 152 169 201
210 172 182 196 179 114 107 154 172 180 177 177 169 164 166 169 173 167 161 154 149 150 152 154 155 163 156 139 123 111 113 138 153 170 180 174 178 168 155 173 211 188 134 175 162 154 167 175 191
187 168 173 187 140 115 134 160 181 182 178 181 177 173 180 178 174 163 158 152 147 148 155 158 152 159 148 140 146 148 180 182 174 192 183 182 181 177 165 167 189 181 175 205 187 149 154 199 142
172 150 173 141 137 126 132 159 199 191 191 187 184 181 184 175 164 165 160 159 160 162 163 160 161 162 161 162 160 160 153 176 193 215 192 201 194 192 182 181 197 201 193 217 198 154 158 227 161
228 195 198 154 114 107 111 15 255 230 209 187 186 190 184 178 174 173 170 171 165 167 169 166 167 163 169 163 132 104 76 35 36 20 255 241 216 206 196 201 196 204 191 211 221 191 177 209 240
235 220 165 153 124 165 145 176 257 229 232 203 197 191 184 179 174 173 169 169 172 174 167 160 161 160 163 154 141 146 152 165 211 204 203 233 216 216 211 212 200 202 199 209 229 200 182 175 212
216 206 157 139 123 94 81 124 269 197 224 216 200 192 186 178 175 175 175 173 171 169 165 160 154 157 159 151 151 145 146 167 166 132 137 310 311 272 245 225 209 205 203 212 224 209 192 181 184
150 61 35 53 73 69 231 147 253 221 213 204 194 189 179 176 175 176 174 164 164 166 163 158 153 158 158 152 152 151 151 149 134 129 157 237 322 320 302 177 211 232 214 218 221 205 201 208 196
84 83 35 10 22 258 252 134 235 233 211 189 185 185 171 169 171 171 170 169 170 170 169 165 162 165 164 157 158 162 161 150 149 157 165 167 324 326 307 28 344 308 262 248 224 168 213 208 192
158 130 150 181 200 265 318 214 252 228 188 169 165 168 166 170 171 176 178 176 175 173 170 168 168 169 167 164 166 161 153 144 148 158 157 168 197 221 328 69 50 33 17 33 50 62 118 109 174
166 171 164 134 131 98 283 297 324 45 143 149 157 162 172 176 175 178 179 177 174 173 174 172 170 168 169 169 160 153 151 146 146 145 139 144 140 122 80 72 66 55 56 60 70 58 47 69 50
170 156 97 109 132 156 273 248 218 203 192 179 167 169 175 174 175 176 176 176 173 173 172 169 169 169 171 172 171 160 157 156 153 130 119 115 88 75 83 72 72 65 61 64 73 68 52 67 40
200 133 115 123 147 146 180 255 220 191 190 181 174 174 178 174 175 175 175 173 166 163 165 167 169 167 168 168 164 155 158 159 147 135 131 127 107 99 92 93 91 79 68 72 81 76 73 68 38
193 183 146 148 196 152 156 255 239 184 183 171 166 169 171 170 170 166 163 158 160 165 165 169 170 171 173 167 158 157 155 148 141 138 136 126 112 103 108 103 91 86 77 73 86 82 71 69 51